EW8716 Weather Reports


time (UTC)temp
C
wind
direction
speed
KPH
gust
KPH
rain 1hr
cm
rain 24hr
cm
rain mn
cm
humidity
%
barometer
mb
20260508142403 15 219 0.0 0.0 0.00 0.00 0.00 54 1014.7
20260508141903 15 271 0.0 0.0 0.00 0.00 0.00 54 1014.7
20260508141402 15 246 0.0 0.0 0.00 0.00 0.00 55 1014.7
20260508140904 14 219 0.0 0.0 0.00 0.00 0.00 55 1014.7
20260508140402 14 217 0.0 0.0 0.00 0.00 0.00 55 1014.7
20260508135902 14 187 0.0 0.0 0.00 0.00 0.00 55 1014.7
20260508135402 14 224 0.0 0.0 0.00 0.00 0.00 54 1014.7
20260508134902 14 190 0.0 0.0 0.00 0.00 0.00 54 1014.7
20260508134404 14 225 0.0 0.0 0.00 0.00 0.00 54 1014.7
20260508133903 14 238 0.0 0.0 0.00 0.00 0.00 54 1014.6
20260508133404 15 236 0.0 0.0 0.00 0.00 0.00 54 1014.7
20260508132902 15 234 0.0 0.0 0.00 0.00 0.00 54 1014.6
20260508132402 15 244 0.0 0.0 0.00 0.00 0.00 54 1014.6
20260508131905 15 240 0.0 0.0 0.00 0.00 0.00 54 1014.5
20260508131404 15 232 0.0 0.0 0.00 0.00 0.00 54 1014.5
20260508130904 15 231 0.0 0.0 0.00 0.00 0.00 55 1014.5
20260508130404 15 245 0.0 0.0 0.00 0.00 0.00 54 1014.4
20260508125902 15 324 0.0 0.0 0.00 0.00 0.00 54 1014.4
20260508125402 15 217 0.0 0.0 0.00 0.00 0.00 54 1014.3
20260508124902 15 247 0.0 0.0 0.00 0.00 0.00 54 1014.3
20260508124402 15 231 0.0 0.0 0.00 0.00 0.00 54 1014.2
20260508123904 15 350 0.0 0.0 0.00 0.00 0.00 55 1014.2
20260508123403 15 236 0.0 0.0 0.00 0.00 0.00 54 1014.2
20260508122904 15 194 0.0 0.0 0.00 0.00 0.00 55 1014.2
20260508122402 15 211 0.0 0.0 0.00 0.00 0.00 55 1014.2
20260508121903 15 234 0.0 0.0 0.00 0.00 0.00 56 1014.3
20260508121404 15 235 0.0 0.0 0.00 0.00 0.00 56 1014.2
20260508121149 15 296 0.0 0.0 0.00 0.00 0.00 56 1014.2
20260508120404 15 251 0.0 0.0 0.00 0.00 0.00 56 1014.1
20260508115905 14 178 0.0 0.0 0.00 0.00 0.00 56 1014.1
20260508115404 14 304 0.0 0.0 0.00 0.00 0.00 57 1014.1
20260508114903 14 244 0.0 0.0 0.00 0.00 0.00 58 1014.1
20260508114403 14 65 0.0 0.0 0.00 0.00 0.00 57 1014.0
20260508113904 14 5 0.0 0.0 0.00 0.00 0.00 58 1014.0
20260508113402 14 333 0.0 0.0 0.00 0.00 0.00 57 1013.9
20260508112903 14 350 0.0 0.0 0.00 0.00 0.00 57 1013.9
20260508112404 14 53 0.0 0.0 0.00 0.00 0.00 57 1013.9
20260508111901 14 28 0.0 0.0 0.00 0.00 0.00 57 1013.9
20260508111402 15 273 0.0 0.0 0.00 0.00 0.00 56 1013.9
20260508110903 15 0 0.0 0.0 0.00 0.00 0.00 57 1013.9
20260508110403 15 304 0.0 0.0 0.00 0.00 0.00 57 1013.8
20260508105904 15 19 0.0 0.0 0.00 0.00 0.00 56 1013.8
20260508105402 15 313 0.0 0.0 0.00 0.00 0.00 55 1013.7
20260508104904 15 270 0.0 0.0 0.00 0.00 0.00 56 1013.7
20260508104401 15 311 0.0 0.0 0.00 0.00 0.00 56 1013.7
20260508103901 15 219 0.0 0.0 0.00 0.00 0.00 57 1013.7
20260508103403 14 248 0.0 0.0 0.00 0.00 0.00 57 1013.6
20260508103147 14 215 0.0 0.0 0.00 0.00 0.00 57 1013.7
20260508102402 14 248 0.0 0.0 0.00 0.00 0.00 57 1013.7
20260508102157 14 232 0.0 0.0 0.00 0.00 0.00 57 1013.7
20260508101405 14 234 0.0 0.0 0.00 0.00 0.00 57 1013.7
20260508100904 14 333 0.0 0.0 0.00 0.00 0.00 57 1013.7
20260508100405 14 235 0.0 0.0 0.00 0.00 0.00 57 1013.6
20260508095941 14 238 0.0 0.0 0.00 0.00 0.00 58 1013.5
20260508095928 14 227 0.0 0.0 0.00 0.00 0.00 58 1013.5
20260508094903 14 143 0.0 0.0 0.00 0.00 0.00 59 1013.4
20260508094654 13 229 0.0 0.0 0.00 0.00 0.00 59 1013.4
20260508093902 13 200 0.0 0.0 0.00 0.00 0.00 59 1013.4
20260508093403 13 197 0.0 0.0 0.00 0.00 0.00 59 1013.4
20260508092937 13 226 0.0 0.0 0.00 0.00 0.00 59 1013.4
20260508092926 13 247 0.0 0.0 0.00 0.00 0.00 59 1013.4
20260508091903 12 123 0.0 0.0 0.00 0.00 0.00 60 1013.3
20260508091402 12 222 0.0 0.0 0.00 0.00 0.00 60 1013.4
20260508090905 12 13 0.0 0.0 0.00 0.00 0.00 60 1013.3
20260508090403 12 267 0.0 0.0 0.00 0.00 0.00 59 1013.3
20260508085904 13 103 0.0 0.0 0.00 0.00 0.00 60 1013.2
20260508085441 13 300 0.0 0.0 0.00 0.00 0.00 60 1013.1
20260508085429 13 266 0.0 0.0 0.00 0.00 0.00 60 1013.2
20260508084403 12 315 0.0 0.0 0.00 0.00 0.00 60 1013.1
20260508083903 12 244 0.0 0.0 0.00 0.00 0.00 60 1013.1
20260508083404 12 226 0.0 0.0 0.00 0.00 0.00 60 1013.0
20260508082946 12 236 0.0 0.0 0.00 0.00 0.00 60 1012.9
20260508082928 12 225 0.0 0.0 0.00 0.00 0.00 60 1013.0
20260508081902 12 228 0.0 0.0 0.00 0.00 0.00 60 1012.8
20260508081403 12 253 0.0 0.0 0.00 0.00 0.00 60 1012.7
20260508080902 12 211 0.0 0.0 0.00 0.00 0.00 60 1012.7
20260508080403 12 213 0.0 0.0 0.00 0.00 0.00 60 1012.7
20260508075905 12 221 0.0 0.0 0.00 0.00 0.00 60 1012.7
20260508075402 12 275 0.0 0.0 0.00 0.00 0.00 60 1012.6
20260508074902 12 216 0.0 0.0 0.00 0.00 0.00 61 1012.6
20260508074402 12 216 0.0 0.0 0.00 0.00 0.00 61 1012.5
20260508073904 11 183 0.0 0.0 0.00 0.00 0.00 61 1012.5
20260508073403 11 202 0.0 0.0 0.00 0.00 0.00 61 1012.5
20260508072902 11 232 0.0 0.0 0.00 0.00 0.00 61 1012.4
20260508072402 11 239 0.0 0.0 0.00 0.00 0.00 61 1012.3
20260508071940 11 215 0.0 0.0 0.00 0.00 0.00 61 1012.3
20260508071928 11 188 0.0 0.0 0.00 0.00 0.00 61 1012.3
20260508070903 11 223 0.0 0.0 0.00 0.00 0.00 61 1012.2
20260508070404 11 199 0.0 0.0 0.00 0.00 0.00 61 1012.2
20260508065903 11 211 0.0 0.0 0.00 0.00 0.00 61 1012.2
20260508065403 11 244 0.0 0.0 0.00 0.00 0.00 61 1012.2
20260508064904 11 239 0.0 0.0 0.00 0.00 0.00 61 1012.0
20260508064403 11 185 0.0 0.0 0.00 0.00 0.00 61 1012.0
20260508063902 10 227 0.0 0.0 0.00 0.00 0.00 61 1012.0
20260508063402 10 173 0.0 0.0 0.00 0.00 0.00 61 1012.0
20260508062903 10 222 0.0 0.0 0.00 0.00 0.00 61 1012.0
20260508062402 10 214 0.0 0.0 0.00 0.00 0.00 61 1011.9
20260508061939 10 222 0.0 0.0 0.00 0.00 0.00 61 1011.7
20260508061928 10 188 0.0 0.0 0.00 0.00 0.00 61 1011.8
20260508060903 10 185 0.0 0.0 0.00 0.00 0.00 61 1011.7
20260508060404 10 177 0.0 0.0 0.00 0.00 0.00 61 1011.7
20260508055903 10 197 0.0 0.0 0.00 0.00 0.00 61 1011.6
20260508055404 10 223 0.0 0.0 0.00 0.00 0.00 61 1011.6
20260508054904 10 209 0.0 0.0 0.00 0.00 0.00 61 1011.5
20260508054401 10 202 0.0 0.0 0.00 0.00 0.00 62 1011.5
20260508054145 10 201 0.0 0.0 0.00 0.00 0.00 62 1011.4
20260508053402 10 243 0.0 0.0 0.00 0.00 0.00 62 1011.4
20260508052903 10 196 0.0 0.0 0.00 0.00 0.00 62 1011.3
20260508052402 10 227 0.0 0.0 0.00 0.00 0.00 62 1011.2
20260508051902 10 221 0.0 0.0 0.00 0.00 0.00 62 1011.2
20260508051646 10 205 0.0 0.0 0.00 0.00 0.00 62 1011.2
20260508050901 10 205 0.0 0.0 0.00 0.00 0.00 62 1011.2
20260508050403 10 214 0.0 0.0 0.00 0.00 0.00 62 1011.1
20260508045903 10 212 0.0 0.0 0.00 0.00 0.00 62 1011.1
20260508045402 10 184 0.0 0.0 0.00 0.00 0.00 62 1011.0
20260508044901 10 219 0.0 0.0 0.00 0.00 0.00 62 1011.0
20260508044403 10 192 0.0 0.0 0.00 0.00 0.00 62 1010.9
20260508043905 10 204 0.0 0.0 0.00 0.00 0.00 62 1010.9
20260508043444 10 188 0.0 0.0 0.00 0.00 0.00 62 1010.8
20260508043430 10 212 0.0 0.0 0.00 0.00 0.00 62 1010.8
20260508042404 10 215 0.0 0.0 0.00 0.00 0.00 62 1010.7
20260508041903 10 221 0.0 0.0 0.00 0.00 0.00 62 1010.7
20260508041403 10 205 0.0 0.0 0.00 0.00 0.00 62 1010.7
20260508040904 10 223 0.0 0.0 0.00 0.00 0.00 62 1010.7
20260508040405 10 205 0.0 0.0 0.00 0.00 0.00 62 1010.7
20260508040147 10 222 0.0 0.0 0.00 0.00 0.00 62 1010.6
20260508035437 10 257 0.0 0.0 0.00 0.00 0.00 62 1010.6
20260508035425 10 192 0.0 0.0 0.00 0.00 0.00 62 1010.6
20260508034403 9 221 0.0 0.0 0.00 0.00 0.00 62 1010.5
20260508033903 9 138 0.0 0.0 0.00 0.00 0.00 62 1010.5
20260508033403 9 217 0.0 0.0 0.00 0.00 0.00 62 1010.5
20260508033143 9 144 0.0 0.0 0.00 0.00 0.00 62 1010.5
20260508032402 9 136 0.0 0.0 0.00 0.00 0.00 62 1010.5
20260508031903 9 191 0.0 0.0 0.00 0.00 0.00 62 1010.5
20260508031403 9 193 0.0 0.0 0.00 0.00 0.00 62 1010.4
20260508031143 9 207 0.0 0.0 0.00 0.00 0.00 62 1010.5
20260508030403 9 198 0.0 0.0 0.00 0.00 0.00 62 1010.5
20260508025902 9 228 0.0 0.0 0.00 0.00 0.00 62 1010.5
20260508025405 9 200 0.0 0.0 0.00 0.00 0.00 62 1010.5
20260508024904 9 193 0.0 0.0 0.00 0.00 0.00 62 1010.5
20260508024404 9 192 0.0 0.0 0.00 0.00 0.00 62 1010.4
20260508023858 9 192 0.0 0.0 0.00 0.00 0.00 62 1010.5
20260508023358 9 231 0.0 0.0 0.00 0.00 0.00 62 1010.5
20260508022858 9 238 0.0 0.0 0.00 0.00 0.00 62 1010.5
20260508022358 10 246 0.0 0.0 0.00 0.00 0.00 61 1010.5
20260508021856 10 142 0.0 0.0 0.00 0.00 0.00 61 1010.5
20260508021357 10 196 0.0 0.0 0.00 0.00 0.00 61 1010.5
20260508020857 10 198 0.0 0.0 0.00 0.00 0.00 61 1010.5
20260508020356 10 189 0.0 0.0 0.00 0.00 0.00 61 1010.5
20260508015856 10 182 0.0 0.0 0.00 0.00 0.00 61 1010.5
20260508015358 10 203 0.0 0.0 0.00 0.00 0.00 61 1010.5
20260508014856 10 196 0.0 0.0 0.00 0.00 0.00 61 1010.5
20260508014357 10 204 0.0 0.0 0.00 0.00 0.00 61 1010.4
20260508013855 10 186 0.0 0.0 0.00 0.00 0.00 61 1010.4
20260508013357 10 228 0.0 0.0 0.00 0.00 0.00 62 1010.4
20260508013137 10 221 0.0 0.0 0.00 0.00 0.00 62 1010.4
20260508012352 10 216 0.0 0.0 0.00 0.00 0.00 62 1010.3
20260508011850 10 219 0.0 0.0 0.00 0.00 0.00 62 1010.2
20260508011351 10 207 0.0 0.0 0.00 0.00 0.00 62 1010.1
20260508010850 10 152 0.0 0.0 0.00 0.00 0.00 61 1010.1
20260508010348 10 186 0.0 0.0 0.00 0.00 0.00 61 1010.1
20260508005848 9 202 0.0 0.0 0.00 0.00 0.00 62 1010.1
20260508005348 9 181 0.0 0.0 0.00 0.00 0.00 62 1010.1
20260508004846 9 199 0.0 0.0 0.00 0.00 0.00 62 1010.1
20260508004347 9 207 0.0 0.0 0.00 0.00 0.00 62 1010.1
20260508003844 9 146 0.0 0.0 0.00 0.00 0.00 62 1010.1
20260508003345 9 192 0.0 0.0 0.00 0.00 0.00 62 1010.2
20260508002846 10 123 0.0 0.0 0.00 0.00 0.00 62 1010.1
20260508002347 10 175 0.0 0.0 0.00 0.00 0.00 62 1010.2
20260508002126 10 161 0.0 0.0 0.00 0.00 0.00 62 1010.2
20260508001339 10 120 0.0 0.0 0.00 0.00 0.00 62 1010.2
20260508000840 10 175 0.0 0.0 0.00 0.00 0.00 63 1010.3
20260508000337 10 232 0.0 0.0 0.00 0.00 0.00 63 1010.3
20260508000154 10 200 0.0 0.0 0.00 0.00 0.00 63 1010.3
20260508000148 10 186 0.0 0.0 0.00 0.00 0.00 63 1010.3
20260507234831 10 229 0.0 0.0 0.00 0.00 0.00 63 1010.2
20260507234333 10 191 0.0 0.0 0.00 0.00 0.00 63 1010.2
20260507233832 10 148 0.0 0.0 0.00 0.00 0.00 63 1010.1
20260507233332 10 220 0.0 0.0 0.00 0.00 0.00 63 1010.1
20260507232832 10 200 0.0 0.0 0.00 0.00 0.00 64 1010.1
20260507232617 10 211 0.0 0.0 0.00 0.00 0.00 64 1010.1
20260507231833 10 117 0.0 0.0 0.00 0.00 0.00 64 1010.0
20260507231332 10 201 0.0 0.0 0.00 0.00 0.00 64 1010.1
20260507230832 10 225 0.0 0.0 0.00 0.00 0.00 64 1010.1
20260507230405 10 226 0.0 0.0 0.00 0.00 0.00 64 1010.0
20260507230355 10 219 0.0 0.0 0.00 0.00 0.00 64 1010.1
20260507225332 10 183 0.0 0.0 0.00 0.00 0.00 64 1009.9
20260507224832 10 209 0.0 0.0 0.00 0.00 0.00 64 1009.9
20260507224331 10 178 0.0 0.0 0.00 0.00 0.00 64 1010.0
20260507223833 10 203 0.0 0.0 0.00 0.00 0.00 64 1010.0
20260507223615 10 182 0.0 0.0 0.00 0.00 0.00 64 1010.0
20260507222829 10 191 0.0 0.0 0.00 0.00 0.00 64 1009.9
20260507222329 10 164 0.0 0.0 0.00 0.00 0.00 64 1010.0
20260507221827 10 182 0.0 0.0 0.00 0.00 0.00 65 1009.9
20260507221615 10 182 0.0 0.0 0.00 0.00 0.00 65 1009.9
20260507220828 10 215 0.0 0.0 0.00 0.00 0.00 65 1009.9
20260507220325 10 182 0.0 0.0 0.00 0.00 0.00 65 1009.9
20260507215825 10 220 0.0 0.0 0.00 0.00 0.00 65 1009.9
20260507215325 10 176 0.0 0.0 0.00 0.00 0.00 65 1009.9
20260507214825 10 123 0.0 0.0 0.00 0.00 0.00 65 1009.9
20260507214326 10 246 0.0 0.0 0.00 0.00 0.00 65 1009.8
20260507213823 11 175 0.0 0.0 0.00 0.00 0.00 65 1009.7
20260507213324 11 218 0.0 0.0 0.00 0.00 0.00 66 1009.7
20260507212823 11 222 0.0 0.0 0.00 0.00 0.00 66 1009.7
20260507212322 11 212 0.0 0.0 0.00 0.00 0.00 66 1009.7
20260507211822 11 229 0.0 0.0 0.00 0.00 0.00 66 1009.8
20260507211320 11 249 0.0 0.0 0.00 0.00 0.00 66 1009.8
20260507210819 11 110 0.0 0.0 0.00 0.00 0.00 66 1009.9
20260507210320 11 205 0.0 0.0 0.00 0.00 0.00 66 1009.9
20260507205821 11 213 0.0 0.0 0.00 0.00 0.00 66 1010.1
20260507205320 11 0 0.0 0.0 0.00 0.00 0.00 66 1010.1
20260507204821 11 227 0.0 0.0 0.00 0.00 0.00 66 1010.1
20260507204609 11 166 0.0 0.0 0.00 0.00 0.00 65 1010.1
20260507203819 11 126 0.0 0.0 0.00 0.00 0.00 65 1010.1
20260507203319 11 136 0.0 0.0 0.00 0.00 0.00 65 1010.1
20260507203148 11 210 0.0 0.0 0.00 0.00 0.00 65 1010.1
20260507203142 11 124 0.0 0.0 0.00 0.00 0.00 65 1010.1
20260507202108 11 196 0.0 0.0 0.00 0.00 0.00 65 1010.0
20260507201316 11 211 0.0 0.0 0.00 0.00 0.00 65 1010.0
20260507201107 12 142 0.0 0.0 0.00 0.00 0.00 65 1010.0
20260507200606 12 217 0.0 0.0 0.00 0.00 0.00 65 1009.9
20260507195816 12 202 0.0 0.0 0.00 0.00 0.00 65 1009.9
20260507195318 12 194 0.0 0.0 0.00 0.00 0.00 65 1009.9
20260507194811 12 220 0.0 0.0 0.00 0.00 0.00 65 1009.9
20260507194311 12 191 0.0 0.0 0.00 0.00 0.00 65 1009.9
20260507193811 12 210 0.0 0.0 0.00 0.00 0.00 65 1009.8
20260507193312 12 218 0.0 0.0 0.00 0.00 0.00 64 1009.8
20260507192810 12 221 0.0 0.0 0.00 0.00 0.00 64 1009.7
20260507192558 12 147 0.0 0.0 0.00 0.00 0.00 64 1009.7
20260507192057 12 198 0.0 0.0 0.00 0.00 0.00 63 1009.7
20260507191308 12 188 0.0 0.0 0.00 0.00 0.00 63 1009.7
20260507191057 12 194 0.0 0.0 0.00 0.00 0.00 62 1009.7
20260507190559 12 240 0.0 0.0 0.00 0.00 0.00 62 1009.7
20260507185808 12 209 0.0 0.0 0.00 0.00 0.00 62 1009.7
20260507185553 12 181 0.0 0.0 0.00 0.00 0.00 62 1009.7
20260507185058 13 242 0.0 0.0 0.00 0.00 0.00 61 1009.6
20260507184309 13 215 0.0 0.0 0.00 0.00 0.00 61 1009.6
20260507184054 13 197 0.0 0.0 0.00 0.00 0.00 61 1009.5
20260507183307 13 184 0.0 0.0 0.00 0.00 0.00 60 1009.6
20260507182807 13 269 0.0 0.0 0.00 0.00 0.00 60 1009.6
20260507182306 13 200 0.0 0.0 0.00 0.00 0.00 60 1009.5
20260507181804 13 238 0.0 0.0 0.00 0.00 0.00 59 1009.5
20260507181303 13 225 0.0 0.0 0.00 0.00 0.00 59 1009.4
20260507181051 13 178 0.0 0.0 0.00 0.00 0.00 59 1009.5
20260507180303 13 199 0.0 0.0 0.00 0.00 0.00 59 1009.4
20260507175803 13 90 0.0 0.0 0.00 0.00 0.00 58 1009.3
20260507175306 13 132 0.0 0.0 0.00 0.00 0.00 58 1009.3
20260507174804 13 85 0.0 0.0 0.00 0.00 0.00 57 1009.2
20260507174543 13 221 0.0 0.0 0.00 0.00 0.00 57 1009.2
20260507173834 14 194 0.0 0.0 0.00 0.00 0.00 55 1009.1
20260507173822 14 197 0.0 0.0 0.00 0.00 0.00 56 1009.1
20260507172756 15 191 0.0 0.0 0.00 0.00 0.00 54 1009.1
20260507172258 15 245 0.0 0.0 0.00 0.00 0.00 53 1009.3
20260507171757 15 239 0.0 0.0 0.00 0.00 0.00 53 1009.2
20260507171257 15 227 0.0 0.0 0.00 0.00 0.00 53 1009.2
20260507170757 15 214 0.0 0.0 0.00 0.00 0.00 53 1009.2
20260507170551 15 176 0.0 0.0 0.00 0.00 0.00 53 1009.3
20260507170040 15 201 0.0 0.0 0.00 0.00 0.00 52 1009.3
20260507165256 15 185 0.0 0.0 0.00 0.00 0.00 52 1009.4
20260507164756 15 217 0.0 0.0 0.00 0.00 0.00 52 1009.4
20260507164254 15 157 0.0 0.0 0.00 0.00 0.00 52 1009.5
20260507163755 15 231 0.0 0.0 0.00 0.00 0.00 51 1009.5
20260507163255 15 207 0.0 0.0 0.00 0.00 0.00 50 1009.4
20260507162755 15 223 0.0 0.0 0.00 0.00 0.00 50 1009.5
20260507162258 15 181 0.0 0.0 0.00 0.00 0.00 50 1009.5
20260507161755 15 188 0.0 0.0 0.00 0.00 0.00 50 1009.5
20260507161256 16 260 0.0 0.0 0.00 0.00 0.00 49 1009.4
20260507160752 16 227 0.0 0.0 0.00 0.00 0.00 50 1009.5
20260507160252 16 235 0.0 0.0 0.00 0.00 0.00 48 1009.5
20260507155754 16 242 0.0 0.0 0.00 0.00 0.00 49 1009.5
20260507155252 16 132 0.0 0.0 0.00 0.00 0.00 48 1009.4
20260507154755 16 205 0.0 0.0 0.00 0.00 0.00 51 1009.5
20260507154254 15 184 0.0 0.0 0.00 0.00 0.00 53 1009.5
20260507153750 15 191 0.0 0.0 0.00 0.00 0.00 53 1009.5
20260507153250 15 244 0.0 0.0 0.00 0.00 0.00 53 1009.5
20260507152750 14 239 0.0 0.0 0.00 0.00 0.00 54 1009.5
20260507152246 14 231 0.0 0.0 0.00 0.00 0.00 55 1009.6
20260507151747 14 161 0.0 0.0 0.00 0.00 0.00 55 1009.6
20260507151248 14 258 0.0 0.0 0.00 0.00 0.00 54 1009.8
20260507151032 14 186 0.0 0.0 0.00 0.00 0.00 53 1009.8
20260507150246 14 255 0.0 0.0 0.00 0.00 0.00 53 1009.8
20260507145745 14 196 0.0 0.0 0.00 0.00 0.00 54 1009.8
20260507145246 13 185 0.0 0.0 0.00 0.00 0.00 55 1009.8
20260507145038 13 249 0.0 0.0 0.00 0.00 0.00 55 1009.9
20260507144242 13 165 0.0 0.0 0.00 0.00 0.00 55 1009.8
20260507143742 13 242 0.0 0.0 0.00 0.00 0.00 55 1009.9
20260507143535 13 158 0.0 0.0 0.00 0.00 0.00 55 1009.9